Tracking 25734 objects as of 28-May-2022
HD Live streaming from Space Station
objects crossing your sky now

TITAN 3C TRANSTAGE DEB

Track TITAN 3C TRANSTAGE DEB now!
10-day predictions


NORAD ID: 1859
Int'l Code: 1965-082ES
Perigee: 694.3 km
Apogee: 793.2 km
Inclination: 32.1 °
Period: 99.5 minutes
Semi major axis: 7114 km
RCS: 0.1777 m2 (medium)
Launch date: October 15, 1965
Source: United States (US)
Launch site: AIR FORCE EASTERN TEST RANGE (AFETR)

Note: This is SATELLITE DEBRIS
aabbcc
Your satellite tracking list
Your tracking list is empty




NASA's NSSDC Master Catalog

Two Line Element Set (TLE):
1  1859U 65082ES  22148.10587848  .00000444  00000-0  10794-3 0  9998
2  1859  32.1272  84.9942 0069483 269.3498  89.9181 14.46652591972815
Source of the keplerian elements: AFSPC